Flag for U.S.A. Weather past 2 weeks in Huntington Beach, California, U.S.A.

Now
82 °F

Sunny.


Feels Like: 80 °F
Forecast: 54 / 77 °F
Wind: 6 mph from South

Location: John Wayne Airport-Orange County Airport

Current Time: Jan 25, 2015 at 12:23:43 PM

Latest Report: Jan 25, 2015 at 11:53 AM


Visibility: 10 mi

Pressure: 29.98 "Hg

Humidity: 17%

Dew point: 33 °F

Location of Huntington BeachLocation

Historic Weather in Huntington Beach — Graph

°F

Huntington Beach temperature yesterday

Maximum temperature yesterday: 83 °F (at 1:53 PM)
Minimum temperature yesterday: 64 °F (at 11:53 PM)
Average temperature yesterday: 75 °F

Past Weeks' High & Low Weather Summary

 TemperatureHumidityPressure
High83 °F (Jan 24, 1:53 PM)90% (Jan 20, 1:53 AM)30.25 "Hg (Jan 20, 1:53 AM)
Low49 °F (Jan 15, 5:53 AM)5% (Jan 23, 1:53 PM)29.93 "Hg (Jan 20, 2:53 PM)
Average63 °F56%30.10 "Hg
* Reported Jan 10 10:53 AM — Jan 25 10:53 AM, Huntington Beach, Weather by CustomWeather, © 2014

Note: Actual official high and low records may vary slightly from our data, if they occured in-between our weather recording intervals... More about our weather records

Advertising

Huntington Beach weather history for previous 24 hours

 ConditionsComfort  
Time TempWeatherWind HumidityBarometerVisibility
10:53 AM
Jan 25
83 °FSunny.No wind11%30.02 "Hg10 mi
9:53 AM80 °FPassing clouds.3 mph15%30.03 "Hg10 mi
8:53 AM79 °FPassing clouds.12 mph10%30.02 "Hg10 mi
7:53 AM75 °FPassing clouds.9 mph11%30.02 "Hg10 mi
6:53 AM67 °FPassing clouds.8 mph17%30.01 "Hg10 mi
5:53 AM56 °FClear.5 mph39%30.00 "Hg10 mi
4:53 AM56 °FClear.No wind40%30.00 "Hg10 mi
3:53 AM55 °FClear.No wind42%30.00 "Hg10 mi
2:53 AM56 °FClear.No wind37%30.01 "Hg10 mi
1:53 AM60 °FClear.No wind30%30.01 "Hg10 mi
12:53 AM63 °FClear.No wind27%30.01 "Hg10 mi
11:53 PM
Jan 24
64 °FClear.No wind24%30.02 "Hg10 mi
10:53 PM70 °FClear.5 mph16%30.03 "Hg10 mi
9:53 PM74 °FClear.5 mph11%30.01 "Hg10 mi
8:53 PM75 °FClear.10 mph11%30.01 "Hg10 mi
7:53 PM75 °FClear.7 mph11%29.99 "Hg10 mi
6:53 PM74 °FClear.9 mph12%29.98 "Hg10 mi
5:53 PM77 °FClear.8 mph11%29.97 "Hg10 mi
4:53 PM79 °FPassing clouds.15 mph11%29.97 "Hg10 mi
3:53 PM82 °FPassing clouds.16 mph10%29.98 "Hg10 mi
2:53 PM83 °FPassing clouds.17 mph10%29.98 "Hg10 mi
1:53 PM83 °FSunny.21 mph10%29.98 "Hg10 mi
12:53 PM82 °FSunny.18 mph10%29.99 "Hg10 mi
Weather by CustomWeather, © 2014

See weather overviewHow to use our weather pages